Regional Weather Roundup
Issued by NWS

Current Version | Previous Version | Text Only | Print | Product List | Glossary On
Versions: 1 2 3 4 5 6 7 8 9 10 11 12 13 14 15 16 17 18 19 20 21 22 23 24 25 26 27 28 29 30 31 32 33 34 35 36 37 38 39 40 41 42 43 44 45 46 47 48 49 50
000
ASUS44 KFWD 270815
RWRTX
NORTH TEXAS HOURLY WEATHER ROUNDUP
NATIONAL WEATHER SERVICE FORT WORTH TX
200 AM CST TUE JAN 27 2015

NOTE: "FAIR" INDICATES FEW OR NO CLOUDS BELOW 12,000 FEET WITH NO
SIGNIFICANT WEATHER AND/OR OBSTRUCTIONS TO VISIBILITY.

TXZ118-119-270900-
DALLAS/FORT WORTH METROPLEX

CITY           SKY/WX    TMP DP  RH WIND       PRES   REMARKS
DFW AIRPORT    PTCLDY    50  36  58 SW6       30.08R
DALLAS LOVE    PTCLDY    51  38  60 W3        30.08S
FTW MEACHAM    CLEAR     56  37  49 CALM      30.08S
DAL-EXECUTIVE  PTCLDY    59  35  40 W10       30.07S
FTW-ALLIANCE   PTCLDY    53  35  50 W3        30.08S
FTW-SPINKS     PTCLDY    54  36  51 CALM      30.11R
ARLINGTON      PTCLDY    50  34  54 CALM      30.09R
GRAND PRAIRIE  PTCLDY    49  39  67 CALM      30.10S
ADDISON        CLEAR     52  37  56 CALM      30.10R
MESQUITE       CLEAR     46  38  74 CALM      30.08S
LANCASTER      PTCLDY    53  35  51 W8        30.08S
$$

TXZ091>094-102>105-117-120-121-131>134-270900-
NORTH CENTRAL TEXAS

CITY           SKY/WX    TMP DP  RH WIND       PRES   REMARKS
SHRMAN/DENISON CLEAR     51  40  66 CALM      30.08F
GAINESVILLE    CLEAR     46  37  71 CALM      30.10S
BOWIE          CLEAR     52  37  58 W5        30.10S
BRIDGEPORT     PTCLDY    50  37  59 SW5       30.12S
DECATUR        CLEAR     53  35  50 W8        30.10R
DENTON         FAIR      49  36  61 NW3       30.08S
MCKINNEY       CLEAR     44  37  76 N3        30.07S
GREENVILLE     CLEAR     43  37  81 CALM      30.07S
ROCKWALL       CLEAR     56  37  50 W5        30.06S
TERRELL        CLEAR     43  37  79 CALM      30.08S
WAXAHACHIE     PTCLDY    54  39  58 W8        30.10S
CLEBURNE       PTCLDY    54  37  54 W9        30.12R
GRANBURY       PTCLDY    44  37  78 CALM      30.13S
$$

TXZ083>090-098>101-113>116-127>130-139>142-154-155-270900-
WESTERN NORTH TEXAS

CITY           SKY/WX    TMP DP  RH WIND       PRES   REMARKS
WICHITA FALLS  CLEAR     50  36  58 NW9       30.10S
WF-KICKAPOO    CLEAR     44  31  61 W6        30.12S
VERNON         CLEAR     48  32  54 W6        30.13S
ABILENE        MOCLDY    45  35  68 CALM      30.18S
ABILENE-DYESS  MOCLDY    54  36  51 SW3       30.16F
BRECKENRIDGE   PTCLDY    50  35  56 SW7       30.15R
GRAHAM         CLEAR     44  36  75 CALM      30.12S
MINERAL WELLS  PTCLDY    49  35  58 W6        30.11R
STEPHENVILLE   PTCLDY    54  36  51 NW5       30.16S
COMANCHE       MOCLDY    58  36  42 W10       30.15S
BROWNWOOD      MOCLDY    41  39  93 CALM      30.18R
COLEMAN        PTCLDY    53  37  55 W12       30.17S
BRADY          CLEAR     45  36  70 W9        30.18S WCI  40
$$

TXZ143>147-156>162-174-175-270900-
CENTRAL TEXAS

CITY           SKY/WX    TMP DP  RH WIND       PRES   REMARKS
WACO           PTCLDY    42  37  82 CALM      30.11S
WACO-MCGREGOR  PTCLDY    46  34  61 SW3       30.13S
HILLSBORO      PTCLDY    48  37  67 S3        30.11S
CORSICANA      PTCLDY    50  39  66 SW9       30.09F
MEXIA          PTCLDY    49  37  63 SW7       30.09F
HEARNE         PTCLDY    41  38  91 CALM      30.14S
CAMERON        PTCLDY    53  41  64 SW7       30.13S
TEMPLE         PTCLDY    48  34  57 CALM      30.12S
KILLEEN        MOCLDY    59  35  39 W15       30.13S
KILLEEN-SKYLRK PTCLDY    57  34  41 W7        30.12F
FORT HOOD      PTCLDY    56  36  45 MISG      30.13S
GATESVILLE     MOCLDY    48  37  66 CALM      30.16S
HAMILTON       MOCLDY    55  37  49 NW9G17    30.15S
LAMPASAS       MOCLDY    55  37  49 W8        30.14S
$$

TXZ095>097-106>112-122>126-135>138-148>153-164>167-270900-
EAST TEXAS

CITY           SKY/WX    TMP DP  RH WIND       PRES   REMARKS
PARIS          CLEAR     46  36  66 CALM      30.07R
SULPHUR SPRNGS CLEAR     49  39  67 CALM      30.09S
MOUNT PLEASANT CLEAR     42  36  79 CALM      30.08R
GILMER         CLEAR     54  38  54 CALM      30.06S
MINEOLA        CLEAR     43  37  81 CALM      30.07S
TYLER          FAIR      53  38  56 SW6       30.07S
LONGVIEW       CLEAR     44  37  76 CALM      30.05F
MARSHALL       CLEAR     42  38  87 CALM      30.08S
ATHENS         CLEAR     41  36  81 CALM      30.08S
PALESTINE      CLEAR     42  38  87 CALM      30.11S
JACKSONVILLE   CLEAR     55  38  51 SW6       30.10S
HENDERSON      CLEAR     41  38  87 CALM      30.08S
NACOGDOCHES    CLEAR     46  36  66 CALM      30.10S
LUFKIN         CLEAR     49  38  65 CALM      30.10R
$$

SUPPLEMENTAL OBSERVATIONS (CENTRAL)

CITY           SKY/WX    TMP DP  RH WIND       PRES   REMARKS
LAKE TEXOMA      N/A     54  39  58 W6          N/A
CADDO GRASSLND   N/A     43  39  87 S1          N/A
ATHENS           N/A     52  39  62 W2          N/A
MCGREGOR         N/A     48  37  66 SW3         N/A
$$

SUPPLEMENTAL OBSERVATIONS (WEST)

CITY           SKY/WX    TMP DP  RH WIND       PRES   REMARKS
MILLERS CREEK    N/A     41  36  81 SW8         N/A  WCI  36
LBJ GRASSLAND    N/A     52  36  54 CALM        N/A
GRANBURY         N/A     43  36  75 CALM        N/A
HAMBY            N/A     46  34  61 S5          N/A
COLORADO BEND    N/A     54  34  47 W5          N/A
$$

SUPPLEMENTAL OBSERVATIONS (EAST)

CITY           SKY/WX    TMP DP  RH WIND       PRES   REMARKS
TEXARKANA        N/A     34  30  86 CALM        N/A
LINDEN           N/A     46  37  71 W3          N/A
CADDO LAKE       N/A     37  34  87 CALM        N/A
LUFKIN           N/A     39  34  81 MISG        N/A
N SABINE NF      N/A     48  37  66 MISG        N/A
$$

SUPPLEMENTAL OBSERVATIONS ARE A COLLECTION OF AUTOMATED INSTRUMENTS
THAT ARE MAINTAINED BY A VARIETY OF FEDERAL AND STATE AGENCIES.
CERTAIN ELEMENTS...SUCH AS HUMIDITY VALUES AND SUSTAINED WIND
SPEEDS...MAY BE APPROXIMATED.



USA.gov is the U.S. government's official web portal to all federal, state and local government web resources and services.